Showing default

HYDROGNSS-1, 66762

Orbit data source: Space-Track

HYDROGNSS-1, 66762 is a payload satellite owned by ESA (ESA) in SSO that was launched on Fri, 28 Nov 2025 UTC via an FALCON 9 launch vehicle from the Air Force Western Test Range (AFWTR). Payload-class satellites include a variety of spacecraft equipped with specific instruments for various scientific and technological missions. These include communications satellites like Starlink; space stations such as the ISS; scientific satellites like the Hubble; Earth observation satellites from companies like Planet Labs, Umbra, and HawkEye 360; GPS; miniature CubeSats for education and research; and military/defense satellites.

Loading next visibility...
Identifier
66762, 2025-276DA
Orbit
SSO
Country
Flag of ESAESA
Related business
Manufacturer
SSTL
Mission
Operational Civil Earth Obs Sci
Bus & Motor
SSTL-21, Unknown motor
Mass
65 kg wet, 65 kg dry
Launch date (UTC)
2025-11-28 (2 months ago)
Launch vehicle
FALCON 9
Launch site
Air Force Western Test Range (AFWTR)
Object type
Payload
Rocket body
Debris
Shape & HBR
Box + 3 Pan, 0.8 m
Radar Cross Section
0.684 m²

Expand to show TLE details & history
Last TLE update: 5 hours ago

TLE from 5 hours ago
0 HYDROGNSS-1
1 66762U 25276DA  26035.15129566  .00006003  00000-0  30057-3 0  9997
2 66762  97.4340 110.9615 0003870 107.6110 252.5547 15.17751437 10229
Epoch: 2026-02-04T03:37Z
TLE epoch observation values (Epoch: 2026-02-04T03:37:51.945Z)
Latitude
0.00003°
Longitude
-77.82693°
Altitude
516.525 km
Speed
7.605 km/s
True Right ascension
07h 23m 50s
True Declination
0° 00' 00"
Sunlit
Object was in full shadow at epoch
Visualization orbit readout
Latitude
Unknown
Longitude
Unknown
Altitude
Unknown
Speed
Unknown
Apparent Right ascension
Unknown
Apparent Declination
Unknown
Sunlit
N/A
Visualization observer readout
Local Sidereal Time
10:13:59
Azimuth
Unknown
Elevation
Unknown
Doppler factor
Unknown
Orbital elements
Apogee altitude
512.274 km
Perigee altitude
506.943 km
Semi-major axis
6,887.745 km
Eccentricity
0.00039
Inclination
97.434°
RAAN
110.9615°
Arg. of periapsis
107.611°
True anomaly
252.5124°
Mean anomaly
252.5547°
Eccentric anomaly
252.53355°
Mean motion
3.79689 °/min
Orbital period
94.81 mins
BSTAR
0.00030057
Loading maneuver chart data...
Computing Atmospheric mass density...
Loading historical data...
Loading historical data...
Loading historical data...
Loading historical data...
Loading historical data...
Loading historical data...
Loading historical data...

Documentation

Showing up to 5 results
|